| time (UTC) | temp C | wind direction | speed KPH | gust KPH | rain 1hr cm | rain 24hr cm | rain mn cm | humidity % | barometer mb |
| 20260508033044 | 25 | 0 | 0.0 | 1.6 | 0.00 | 0.00 | 0.00 | 13 | 1010.7 |
| 20260508031555 | 25 | 0 | 0.0 | 1.6 | 0.00 | 0.00 | 0.00 | 13 | 1010.4 |
| 20260508030052 | 26 | 0 | 0.0 | 3.2 | 0.00 | 0.00 | 0.00 | 12 | 1010.3 |
| 20260508024605 | 27 | 0 | 0.0 | 6.4 | 0.00 | 0.00 | 0.00 | 12 | 1010.1 |
| 20260508023040 | 28 | 272 | 1.6 | 4.8 | 0.00 | 0.00 | 0.00 | 11 | 1010.1 |
| 20260508021557 | 28 | 272 | 3.2 | 9.7 | 0.00 | 0.00 | 0.00 | 11 | 1009.9 |
| 20260508020047 | 29 | 279 | 4.8 | 14.5 | 0.00 | 0.00 | 0.00 | 11 | 1009.7 |
| 20260508014552 | 30 | 274 | 6.4 | 16.1 | 0.00 | 0.00 | 0.00 | 11 | 1009.5 |
| 20260508013043 | 31 | 267 | 3.2 | 14.5 | 0.00 | 0.00 | 0.00 | 11 | 1009.5 |
| 20260508011548 | 31 | 255 | 8.0 | 20.9 | 0.00 | 0.00 | 0.00 | 11 | 1009.6 |
| 20260508010049 | 32 | 255 | 3.2 | 17.7 | 0.00 | 0.00 | 0.00 | 11 | 1009.5 |
| 20260508004550 | 33 | 0 | 1.6 | 11.3 | 0.00 | 0.00 | 0.00 | 10 | 1009.5 |
| 20260508003040 | 33 | 275 | 8.0 | 16.1 | 0.00 | 0.00 | 0.00 | 10 | 1009.4 |
| 20260508001550 | 34 | 258 | 4.8 | 9.7 | 0.00 | 0.00 | 0.00 | 10 | 1009.3 |
| 20260508000038 | 33 | 260 | 6.4 | 17.7 | 0.00 | 0.00 | 0.00 | 11 | 1009.4 |
| 20260507234544 | 33 | 255 | 0.0 | 16.1 | 0.00 | 0.00 | 0.00 | 10 | 1009.4 |
| 20260507233043 | 34 | 265 | 4.8 | 16.1 | 0.00 | 0.00 | 0.00 | 10 | 1009.5 |
| 20260507231543 | 35 | 245 | 1.6 | 8.0 | 0.00 | 0.00 | 0.00 | 10 | 1009.2 |
| 20260507230045 | 34 | 0 | 0.0 | 9.7 | 0.00 | 0.00 | 0.00 | 9 | 1009.5 |
| 20260507224552 | 33 | 258 | 0.0 | 9.7 | 0.00 | 0.00 | 0.00 | 10 | 1009.7 |
| 20260507223043 | 33 | 0 | 0.0 | 9.7 | 0.00 | 0.00 | 0.00 | 9 | 1009.8 |
| 20260507221549 | 35 | 0 | 4.8 | 9.7 | 0.00 | 0.00 | 0.00 | 9 | 1009.9 |
| 20260507220054 | 33 | 216 | 0.0 | 14.5 | 0.00 | 0.00 | 0.00 | 10 | 1010.2 |
| 20260507214545 | 34 | 0 | 1.6 | 8.0 | 0.00 | 0.00 | 0.00 | 8 | 1010.3 |
| 20260507213045 | 33 | 348 | 1.6 | 8.0 | 0.00 | 0.00 | 0.00 | 8 | 1010.5 |
| 20260507211543 | 33 | 0 | 0.0 | 8.0 | 0.00 | 0.00 | 0.00 | 10 | 1010.9 |
| 20260507210050 | 33 | 28 | 3.2 | 8.0 | 0.00 | 0.00 | 0.00 | 10 | 1011.1 |
| 20260507204549 | 34 | 18 | 0.0 | 12.9 | 0.00 | 0.00 | 0.00 | 9 | 1011.2 |
| 20260507203112 | 34 | 274 | 3.2 | 14.5 | 0.00 | 0.00 | 0.00 | 12 | 1011.4 |
| 20260507201544 | 33 | 8 | 3.2 | 9.7 | 0.00 | 0.00 | 0.00 | 13 | 1011.5 |
| 20260507200041 | 33 | 338 | 0.0 | 8.0 | 0.00 | 0.00 | 0.00 | 14 | 1011.8 |
| 20260507194600 | 33 | 283 | 3.2 | 12.9 | 0.00 | 0.00 | 0.00 | 16 | 1012.0 |
| 20260507193047 | 33 | 343 | 1.6 | 6.4 | 0.00 | 0.00 | 0.00 | 16 | 1012.1 |
| 20260507191547 | 32 | 43 | 0.0 | 9.7 | 0.00 | 0.00 | 0.00 | 16 | 1012.5 |
| 20260507190053 | 31 | 27 | 0.0 | 8.0 | 0.00 | 0.00 | 0.00 | 15 | 1012.7 |
| 20260507184540 | 31 | 301 | 1.6 | 8.0 | 0.00 | 0.00 | 0.00 | 19 | 1012.9 |
| 20260507183047 | 31 | 293 | 1.6 | 6.4 | 0.00 | 0.00 | 0.00 | 19 | 1013.1 |
| 20260507181546 | 30 | 334 | 0.0 | 6.4 | 0.00 | 0.00 | 0.00 | 17 | 1013.2 |
| 20260507180045 | 30 | 23 | 1.6 | 8.0 | 0.00 | 0.00 | 0.00 | 19 | 1013.2 |
| 20260507174546 | 29 | 0 | 0.0 | 12.9 | 0.00 | 0.00 | 0.00 | 19 | 1013.4 |
| 20260507173110 | 28 | 180 | 0.0 | 4.8 | 0.00 | 0.00 | 0.00 | 18 | 1013.6 |
| 20260507171542 | 28 | 183 | 0.0 | 8.0 | 0.00 | 0.00 | 0.00 | 20 | 1013.6 |
| 20260507170049 | 27 | 163 | 0.0 | 3.2 | 0.00 | 0.00 | 0.00 | 20 | 1013.8 |
| 20260507164545 | 26 | 0 | 0.0 | 3.2 | 0.00 | 0.00 | 0.00 | 21 | 1013.9 |
| 20260507163044 | 26 | 164 | 0.0 | 4.8 | 0.00 | 0.00 | 0.00 | 21 | 1013.9 |
| 20260507161548 | 25 | 0 | 1.6 | 4.8 | 0.00 | 0.00 | 0.00 | 22 | 1014.0 |
| 20260507160059 | 24 | 164 | 1.6 | 4.8 | 0.00 | 0.00 | 0.00 | 23 | 1014.3 |
| 20260507154556 | 23 | 0 | 0.0 | 1.6 | 0.00 | 0.00 | 0.00 | 25 | 1014.3 |
| 20260507153048 | 21 | 0 | 0.0 | 3.2 | 0.00 | 0.00 | 0.00 | 25 | 1014.3 |
| 20260507151544 | 20 | 159 | 0.0 | 4.8 | 0.00 | 0.00 | 0.00 | 29 | 1014.2 |
| 20260507150044 | 17 | 158 | 1.6 | 4.8 | 0.00 | 0.00 | 0.00 | 32 | 1014.4 |
| 20260507144600 | 16 | 158 | 1.6 | 6.4 | 0.00 | 0.00 | 0.00 | 34 | 1014.4 |
| 20260507143056 | 15 | 0 | 1.6 | 6.4 | 0.00 | 0.00 | 0.00 | 35 | 1014.3 |
| 20260507141555 | 13 | 0 | 0.0 | 3.2 | 0.00 | 0.00 | 0.00 | 38 | 1014.4 |
| 20260507140043 | 12 | 227 | 0.0 | 4.8 | 0.00 | 0.00 | 0.00 | 40 | 1014.3 |
| 20260507134552 | 12 | 0 | 0.0 | 6.4 | 0.00 | 0.00 | 0.00 | 40 | 1014.2 |
| 20260507133125 | 11 | 0 | 1.6 | 6.4 | 0.00 | 0.00 | 0.00 | 38 | 1014.1 |
| 20260507131544 | 11 | 0 | 0.0 | 4.8 | 0.00 | 0.00 | 0.00 | 41 | 1014.0 |
| 20260507130058 | 10 | 0 | 0.0 | 4.8 | 0.00 | 0.00 | 0.00 | 41 | 1013.8 |
| 20260507124548 | 10 | 0 | 0.0 | 1.6 | 0.00 | 0.00 | 0.00 | 40 | 1013.9 |
| 20260507123052 | 10 | 0 | 0.0 | 1.6 | 0.00 | 0.00 | 0.00 | 40 | 1013.8 |
| 20260507121549 | 10 | 268 | 0.0 | 3.2 | 0.00 | 0.00 | 0.00 | 40 | 1013.7 |
| 20260507120038 | 11 | 0 | 0.0 | 3.2 | 0.00 | 0.00 | 0.00 | 38 | 1013.6 |
| 20260507114547 | 11 | 268 | 0.0 | 3.2 | 0.00 | 0.00 | 0.00 | 38 | 1013.7 |
| 20260507113044 | 11 | 0 | 0.0 | 3.2 | 0.00 | 0.00 | 0.00 | 38 | 1013.7 |
| 20260507111543 | 11 | 0 | 0.0 | 0.0 | 0.00 | 0.00 | 0.00 | 38 | 1013.7 |
| 20260507110044 | 11 | 0 | 0.0 | 3.2 | 0.00 | 0.00 | 0.00 | 37 | 1013.8 |
| 20260507104547 | 12 | 0 | 0.0 | 3.2 | 0.00 | 0.00 | 0.00 | 37 | 1014.0 |
| 20260507103044 | 12 | 268 | 0.0 | 1.6 | 0.00 | 0.00 | 0.00 | 35 | 1014.1 |
| 20260507101547 | 12 | 0 | 0.0 | 1.6 | 0.00 | 0.00 | 0.00 | 35 | 1014.1 |
| 20260507100042 | 13 | 0 | 0.0 | 3.2 | 0.00 | 0.00 | 0.00 | 35 | 1014.2 |
| 20260507094552 | 13 | 268 | 0.0 | 3.2 | 0.00 | 0.00 | 0.00 | 34 | 1014.4 |
| 20260507093038 | 13 | 268 | 0.0 | 1.6 | 0.00 | 0.00 | 0.00 | 37 | 1014.3 |
| 20260507091545 | 14 | 0 | 0.0 | 0.0 | 0.00 | 0.00 | 0.00 | 36 | 1014.3 |
| 20260507090045 | 15 | 0 | 0.0 | 0.0 | 0.00 | 0.00 | 0.00 | 33 | 1014.3 |
| 20260507084549 | 15 | 0 | 0.0 | 0.0 | 0.00 | 0.00 | 0.00 | 33 | 1014.4 |
| 20260507083048 | 16 | 0 | 0.0 | 1.6 | 0.00 | 0.00 | 0.00 | 32 | 1014.5 |
| 20260507081547 | 16 | 268 | 0.0 | 3.2 | 0.00 | 0.00 | 0.00 | 31 | 1014.5 |
| 20260507080052 | 16 | 0 | 0.0 | 0.0 | 0.00 | 0.00 | 0.00 | 32 | 1014.6 |
| 20260507074550 | 16 | 0 | 0.0 | 1.6 | 0.00 | 0.00 | 0.00 | 33 | 1014.5 |
| 20260507073101 | 15 | 0 | 0.0 | 3.2 | 0.00 | 0.00 | 0.00 | 35 | 1014.5 |
| 20260507071540 | 15 | 0 | 0.0 | 0.0 | 0.00 | 0.00 | 0.00 | 36 | 1014.6 |
| 20260507070056 | 15 | 0 | 0.0 | 0.0 | 0.00 | 0.00 | 0.00 | 37 | 1014.6 |
| 20260507064555 | 15 | 0 | 0.0 | 0.0 | 0.00 | 0.00 | 0.00 | 37 | 1014.6 |
| 20260507063046 | 15 | 0 | 0.0 | 0.0 | 0.00 | 0.00 | 0.00 | 38 | 1014.7 |
| 20260507061541 | 16 | 0 | 0.0 | 0.0 | 0.00 | 0.00 | 0.00 | 38 | 1014.7 |
| 20260507060041 | 16 | 0 | 0.0 | 1.6 | 0.00 | 0.00 | 0.00 | 38 | 1014.7 |
| 20260507054539 | 16 | 0 | 0.0 | 0.0 | 0.00 | 0.00 | 0.00 | 34 | 1014.7 |
| 20260507053037 | 16 | 0 | 0.0 | 0.0 | 0.00 | 0.00 | 0.00 | 33 | 1014.7 |
| 20260507051545 | 16 | 0 | 0.0 | 0.0 | 0.00 | 0.00 | 0.00 | 31 | 1014.6 |
| 20260507050044 | 17 | 0 | 0.0 | 0.0 | 0.00 | 0.00 | 0.00 | 30 | 1014.5 |
| 20260507044551 | 17 | 0 | 0.0 | 0.0 | 0.00 | 0.00 | 0.00 | 28 | 1014.4 |
| 20260507043049 | 18 | 0 | 0.0 | 0.0 | 0.00 | 0.00 | 0.00 | 26 | 1014.4 |
| 20260507041544 | 18 | 0 | 0.0 | 0.0 | 0.00 | 0.00 | 0.00 | 25 | 1014.3 |
| 20260507040048 | 19 | 0 | 0.0 | 0.0 | 0.00 | 0.00 | 0.00 | 25 | 1014.0 |
| 20260507034545 | 20 | 0 | 0.0 | 0.0 | 0.00 | 0.00 | 0.00 | 23 | 1014.0 |